Home > Weather > Płock > Past weeks

Flag for Poland Weather for the Past 2 Weeks in Płock, Poland

Now
32 °F

Clear.


Feels Like: 24 °F
Forecast: 41 / 49 °F
Wind: 9 mph from South

Location: Warsaw Okecie Airport

Current Time: Feb 7, 2016 at 5:32:56 AM

Latest Report: Feb 7, 2016 at 4:00 AM


Visibility: 10 mi

Pressure: 29.98 "Hg

Humidity: 93%

Dew point: 30 °F

Location of PłockLocation

Historic Weather in Płock — Graph

°F

Płock Temperature Yesterday

Maximum temperature yesterday: 45 °F (at 2:30 PM)
Minimum temperature yesterday: 30 °F (at 3:00 AM)
Average temperature yesterday: 37 °F

High & Low Weather Summary for the Past Weeks

 TemperatureHumidityPressure
High52 °F (Jan 28, 10:00 AM)100% (Jan 24, 6:00 PM)30.48 "Hg (Jan 24, 6:00 PM)
Low5 °F (Jan 23, 6:30 AM)50% (Jan 29, 1:30 PM)29.53 "Hg (Jan 31, 12:30 AM)
Average38 °F80%30.01 "Hg
* Reported Jan 23 4:00 AM — Feb 7 4:00 AM, Płock, Weather by CustomWeather, © 2016

Note: Actual official high and low records may vary slightly from our data, if they occured in-between our weather recording intervals... More about our weather records

Advertising

Płock Weather History for the Previous 24 Hours

 ConditionsComfort  
Time TempWeatherWind HumidityBarometerVisibility
4:00 AM
Sun, Feb 7
32 °FClear.9 mph93%29.98 "Hg10 mi
3:30 AM32 °FClear.10 mph87%29.98 "Hg10 mi
3:00 AM32 °FClear.10 mph93%29.98 "Hg10 mi
2:30 AM32 °FClear.10 mph87%29.98 "Hg10 mi
2:00 AM34 °FClear.8 mph87%29.98 "Hg10 mi
1:30 AM34 °FClear.8 mph81%30.01 "Hg10 mi
1:00 AM34 °FClear.10 mph87%30.01 "Hg10 mi
12:00 AM36 °FClear.9 mph81%30.01 "Hg10 mi
11:30 PM
Sat, Feb 6
37 °FClear.7 mph81%30.01 "Hg10 mi
11:00 PM37 °FClear.10 mph81%30.01 "Hg10 mi
10:00 PM36 °FClear.9 mph87%30.04 "Hg10 mi
9:30 PM37 °FClear.12 mph81%30.04 "Hg10 mi
9:00 PM37 °FClear.10 mph87%30.04 "Hg10 mi
8:30 PM37 °FClear.10 mph87%30.07 "Hg10 mi
8:00 PM37 °FClear.10 mph87%30.07 "Hg10 mi
7:30 PM37 °FClear.12 mph87%30.07 "Hg10 mi
7:00 PM37 °FClear.10 mph93%30.07 "Hg10 mi
6:30 PM37 °FClear.9 mph93%30.09 "Hg10 mi
6:00 PM39 °FClear.10 mph87%30.09 "Hg10 mi
5:30 PM39 °FClear.10 mph87%30.09 "Hg10 mi
5:00 PM39 °FPassing clouds.8 mph87%30.09 "HgN/A
4:30 PM39 °FSunny.8 mph87%30.09 "Hg10 mi
4:00 PM41 °FSunny.9 mph87%30.09 "Hg10 mi
3:30 PM43 °FScattered clouds.8 mph81%30.12 "HgN/A
3:00 PM45 °FPartly sunny.8 mph76%30.12 "HgN/A
2:30 PM45 °FPartly sunny.8 mph76%30.12 "HgN/A
2:00 PM43 °FPartly sunny.8 mph81%30.12 "HgN/A
1:30 PM43 °FPartly sunny.8 mph76%30.12 "HgN/A
1:00 PM41 °FPartly sunny.8 mph81%30.15 "HgN/A
12:30 PM39 °FPartly sunny.7 mph87%30.15 "HgN/A
12:00 PM39 °FPartly sunny.8 mph81%30.18 "Hg6 mi
11:30 AM39 °FPartly sunny.7 mph81%30.18 "Hg5 mi
11:00 AM37 °FPartly sunny.7 mph87%30.18 "Hg5 mi
10:30 AM37 °FPartly sunny.7 mph81%30.18 "Hg5 mi
10:00 AM36 °FPartly sunny.8 mph87%30.18 "Hg5 mi
9:30 AM36 °FPartly sunny.7 mph87%30.18 "Hg5 mi
9:00 AM36 °FPartly sunny.9 mph81%30.18 "Hg5 mi
8:30 AM36 °FPartly sunny.8 mph81%30.18 "HgN/A
8:00 AM34 °FPartly sunny.6 mph81%30.18 "HgN/A
7:30 AM34 °FPartly sunny.7 mph81%30.18 "HgN/A
7:00 AM34 °FPassing clouds.6 mph81%30.18 "HgN/A
6:30 AM34 °FClear.6 mph81%30.18 "Hg10 mi
6:00 AM32 °FClear.6 mph87%30.18 "Hg10 mi
5:00 AM32 °FPassing clouds.6 mph87%30.18 "HgN/A
Weather by CustomWeather, © 2016

See weather overviewHow to use our weather pages